[[{"header":{"parameterUnit":"m.s-1","parameterCategory":2,"la1":30.2991,"la2":30.254,"lo1":-89.0895,"lo2":-89.0444,"dy":0.0017,"dx":0.0017,"nx":28,"ny":28,"refTime":"2024-08-10T03:00:00:Z","depth":"0","parameterNumber":2,"parameterNumberName":"U-component_of_CURRENTS"},"data":[0,0,0,0,0,0,0,0,0,0,0,0,0,0,0,0,0,0,0,0,0,0,0,0,0,0,0,0,0,0,0,0,0,0,0,0,0,0,0,0,0,0,0,0,0,0,0,0,0,0,0,0,0,0,0,0,0,0,0.1873,0.1873,0,0.1868,0.1868,0.1868,0.1682,0.1677,0.1673,0.1668,0.175,0.1757,0.1763,0,0,0,0,0,0,0,0,0,0,0,0,0,0.1806,0.1808,0.1873,0.1873,0.1873,0.1868,0.1868,0.1868,0.1683,0.1677,0.1671,0.1666,0.1748,0.1756,0.1764,0,0,0,0,0,0,0,0,0,0,0,0,0,0.1822,0.1809,0.1873,0.1779,0.1771,0.1868,0.1868,0.1868,0.1684,0.1677,0.167,0.1663,0.1745,0.1755,0.1765,0.1974,0,0,0.1796,0.18,0,0,0,0,0,0,0,0,0.1822,0.1825,0.1793,0.1786,0.1777,0.1768,0.1874,0.1907,0.1686,0.1718,0.1668,0.1659,0.1769,0.1777,0.1792,0.1977,0.1981,0.1797,0.1803,0.1807,0.181,0,0,0,0,0,0,0,0.1821,0.1825,0.1871,0.1794,0.1784,0.1766,0.176,0.188,0.1787,0.1715,0.1701,0.1702,0.1764,0.1782,0.1793,0.1982,0.1796,0.1805,0.1812,0.1816,0.2393,0.2402,0,0,0,0,0,0,0.1825,0.1824,0.1872,0.1871,0.1781,0.1773,0.1766,0.1779,0.1783,0.1776,0.1708,0.1693,0.1769,0.1781,0.1795,0.2003,0.1807,0.1817,0.1822,0.2384,0.2395,0.2405,0,0,0,0,0,0,0.1824,0.183,0.1872,0.1846,0.1849,0.1781,0.1798,0.1782,0.1799,0.1777,0.177,0.1738,0.1763,0.1781,0.1935,0.2005,0.1821,0.183,0.2373,0.2388,0.24,0.2445,0,0,0,0,0,0,0.1822,0.183,0.1881,0.1847,0.1851,0.1989,0.1804,0.1787,0.181,0.179,0.1804,0.1801,0.1759,0.1921,0.1945,0.2015,0.1838,0.2361,0.238,0.2396,0.2431,0.2458,0.2481,0,0,0,0,0,0.182,0.1925,0.1883,0.1891,0.191,0.1996,0.2002,0.1924,0.1819,0.1898,0.1882,0.1801,0.2048,0.1938,0.1964,0.2038,0.2353,0.2374,0.2395,0.242,0.2453,0.2481,0,0,0,0,0,0,0.195,0.1915,0.1868,0.1962,0.1999,0.1964,0.2034,0.197,0.2019,0.1989,0.1926,0.1933,0.2099,0.2121,0.2,0.2277,0.219,0.2217,0.2201,0.2232,0.2257,0.2137,0.1847,0,0,0,0,0,0.2001,0.205,0.2033,0.2122,0.2144,0.2097,0.2126,0.2077,0.2092,0.2098,0.2094,0.2134,0.2222,0.2258,0.236,0.2523,0.2484,0.2603,0.2627,0.2647,0.2584,0.2625,0.2641,0.2474,0.2474,0.2474,0,0,0.2071,0.2067,0.2093,0.2152,0.216,0.2203,0.2099,0.2173,0.218,0.2119,0.2179,0.2248,0.2303,0.2453,0.2529,0.2458,0.2699,0.2673,0.2687,0.2612,0.2647,0.2661,0.2673,0.2488,0.2486,0.2483,0,0,0.2221,0.2245,0.2312,0.2345,0.2378,0.2352,0.2382,0.2381,0.236,0.2471,0.2411,0.2508,0.2659,0.2662,0.269,0.2948,0.2852,0.3026,0.3009,0.3052,0.306,0.3067,0.3085,0.3092,0.3006,0.3006,0.3006,0,0.2308,0.2345,0.2368,0.243,0.2425,0.2413,0.2449,0.2483,0.2524,0.2511,0.2513,0.2669,0.2733,0.2813,0.2884,0.2982,0.298,0.2855,0.3064,0.307,0.3076,0.3091,0.3099,0.3011,0.301,0.301,0.3009,0,0.246,0.2487,0.2553,0.2568,0.2615,0.2673,0.2668,0.2721,0.2693,0.2671,0.2784,0.2876,0.2915,0.3012,0.3009,0.3106,0.3088,0.3097,0.2932,0.3091,0.3104,0.311,0.3017,0.3016,0.3014,0.3013,0,0,0.2597,0.2632,0.2639,0.2605,0.2656,0.2685,0.2749,0.2757,0.2725,0.2836,0.2805,0.2994,0.2983,0.3021,0.3063,0.3101,0.3184,0.3101,0.3101,0.3018,0.3254,0.3196,0.3196,0.3208,0.3209,0.321,0.3257,0,0.2669,0.273,0.2738,0.2763,0.2762,0.2754,0.2785,0.2804,0.282,0.2832,0.2901,0.2952,0.3005,0.3024,0.3079,0.3157,0.3196,0.3167,0.3197,0.3196,0.3041,0.32,0.3125,0.3155,0.3262,0.3263,0.3264,0,0.2746,0.2756,0.2774,0.2721,0.2725,0.2748,0.2705,0.2742,0.2775,0.2791,0.2835,0.2877,0.2955,0.2995,0.3122,0.3096,0.3167,0.3227,0.3231,0.3133,0.3148,0.302,0.316,0.3029,0.3272,0.3271,0.3271,0,0.2706,0.2742,0.2715,0.2716,0.2715,0.2698,0.2694,0.2712,0.271,0.2746,0.2751,0.2836,0.2879,0.2982,0.3107,0.3114,0.3233,0.3265,0.3276,0.3272,0.3184,0.317,0.3097,0.3346,0.3346,0.3346,0.3346,0,0.2704,0.2678,0.2684,0.267,0.2623,0.2642,0.2602,0.2616,0.2637,0.2631,0.2708,0.2726,0.2878,0.2962,0.3079,0.318,0.3215,0.3263,0.3281,0.3215,0.3204,0.3064,0.3026,0.3348,0.3347,0.3347,0.3347,0,0.264,0.2654,0.2613,0.2604,0.2594,0.2556,0.2541,0.2525,0.2553,0.2551,0.2561,0.2651,0.2757,0.2896,0.3063,0.3132,0.3155,0.3275,0.317,0.3174,0.3041,0.3013,0.284,0.2795,0.3284,0.3283,0.3282,0,0.2603,0.2579,0.2554,0.2531,0.252,0.2481,0.2457,0.2476,0.2471,0.2504,0.2504,0.259,0.2652,0.285,0.3002,0.3163,0.3096,0.3154,0.3161,0.3001,0.2985,0.2864,0.2832,0.3099,0.3097,0.3095,0.3093,0,0.2522,0.2515,0.2493,0.2447,0.2412,0.2377,0.2353,0.2338,0.2363,0.2374,0.2395,0.2443,0.262,0.273,0.2915,0.3029,0.2976,0.3116,0.2992,0.285,0.267,0.2647,0.3084,0.3076,0.3078,0.3079,0.308,0.3081,0.2451,0.2415,0.239,0.2336,0.2309,0.2265,0.2217,0.2222,0.2201,0.2194,0.2283,0.2326,0.248,0.2736,0.2824,0.2853,0.2864,0.2807,0.2795,0.269,0.2598,0.2968,0.2952,0.2953,0.2953,0.2954,0.2955,0,0.2335,0.2315,0.2279,0.2211,0.2159,0.2174,0.2136,0.2092,0.2053,0.2092,0.2113,0.2218,0.2316,0.2462,0.2581,0.2536,0.2499,0.2455,0.2276,0.2278,0.2648,0.2589,0.244,0.2441,0.2441,0.2441,0.2441,0.2441,0.227,0.2204,0.2188,0.2072,0.2037,0.1948,0.1918,0.1885,0.1897,0.188,0.1907,0.1984,0.2116,0.2177,0.218,0.2186,0.2056,0.1948,0.1946,0.2207,0.2238,0.2268,0.2199,0.1971,0.1971,0.1507,0.1503,0.15]},{"header":{"parameterUnit":"m.s-1","parameterCategory":2,"la1":30.2991,"la2":30.254,"lo1":-89.0895,"lo2":-89.0444,"dy":0.0017,"dx":0.0017,"nx":28,"ny":28,"refTime":"2024-08-10T03:00:00:Z","depth":"0","parameterNumber":3,"parameterNumberName":"V-component_of_CURRENTS"},"data":[0,0,0,0,0,0,0,0,0,0,0,0,0,0,0,0,0,0,0,0,0,0,0,0,0,0,0,0,0,0,0,0,0,0,0,0,0,0,0,0,0,0,0,0,0,0,0,0,0,0,0,0,0,0,0,0,0,0,0.0223,0.0224,0,0.0263,0.0264,0.0264,0.0152,0.0148,0.0145,0.0141,0.0211,0.0216,0.0221,0,0,0,0,0,0,0,0,0,0,0,0,0,0.0163,0.0164,0.0223,0.0224,0.0224,0.0263,0.0264,0.0264,0.0153,0.0148,0.0144,0.014,0.0209,0.0215,0.0222,0,0,0,0,0,0,0,0,0,0,0,0,0,0.0197,0.0165,0.0223,0.0171,0.0166,0.0263,0.0264,0.0265,0.0154,0.0148,0.0143,0.0137,0.0207,0.0215,0.0223,0.0384,0,0,0.0247,0.0251,0,0,0,0,0,0,0,0,0.0195,0.02,0.0178,0.0175,0.017,0.0194,0.0268,0.0305,0.0155,0.0162,0.0141,0.0135,0.0211,0.0218,0.0241,0.0387,0.039,0.0248,0.0253,0.0256,0.0258,0,0,0,0,0,0,0,0.0193,0.0198,0.0242,0.0179,0.0174,0.0183,0.0181,0.0275,0.022,0.0161,0.0152,0.0154,0.0208,0.0234,0.0242,0.0391,0.0248,0.0255,0.026,0.0263,0.0663,0.0669,0,0,0,0,0,0,0.0183,0.0196,0.0241,0.0243,0.0166,0.0188,0.0186,0.0194,0.0218,0.0215,0.0158,0.0148,0.0223,0.0233,0.0244,0.042,0.0256,0.0263,0.0268,0.0658,0.0665,0.0671,0,0,0,0,0,0,0.0182,0.0187,0.0239,0.0217,0.0223,0.0194,0.0205,0.0198,0.0218,0.0215,0.0212,0.0183,0.0219,0.0233,0.034,0.0422,0.0267,0.0274,0.0651,0.066,0.0668,0.0783,0,0,0,0,0,0,0.018,0.0187,0.0217,0.0217,0.0224,0.0325,0.021,0.0203,0.0226,0.0214,0.0238,0.0237,0.0216,0.0329,0.0348,0.043,0.0281,0.0643,0.0655,0.0665,0.0772,0.0795,0.0815,0,0,0,0,0,0.0178,0.0247,0.0218,0.0225,0.0257,0.0329,0.0338,0.0297,0.0233,0.0287,0.0285,0.0236,0.0411,0.0341,0.0362,0.0448,0.0638,0.0651,0.0664,0.0763,0.0791,0.0814,0,0,0,0,0,0,0.0256,0.0242,0.021,0.0274,0.0307,0.0309,0.0361,0.0327,0.0372,0.0356,0.0322,0.0328,0.0452,0.0461,0.0383,0.0602,0.0516,0.0534,0.0584,0.0611,0.0631,0.0598,0.0287,0,0,0,0,0,0.0285,0.0318,0.0318,0.0378,0.0397,0.0385,0.0412,0.039,0.0413,0.0423,0.0433,0.0467,0.0536,0.0572,0.0639,0.0777,0.0715,0.0849,0.087,0.0887,0.0881,0.0847,0.0861,0.0714,0.0714,0.0714,0,0,0.0326,0.0331,0.0346,0.0395,0.0412,0.0474,0.0389,0.0455,0.0502,0.0437,0.0528,0.0555,0.0593,0.0722,0.078,0.0729,0.0908,0.0904,0.0917,0.0901,0.0861,0.0874,0.0886,0.0723,0.0721,0.072,0,0,0.0429,0.044,0.0491,0.0531,0.057,0.0576,0.0599,0.0623,0.0632,0.0744,0.0693,0.0767,0.0884,0.0908,0.0937,0.1138,0.1024,0.1167,0.1241,0.121,0.1219,0.1226,0.1183,0.1185,0.1171,0.1171,0.1171,0,0.0473,0.0529,0.0532,0.0601,0.0632,0.0622,0.069,0.0739,0.0793,0.0813,0.0793,0.0927,0.0974,0.1077,0.1142,0.1182,0.1119,0.1127,0.1227,0.1233,0.1238,0.1191,0.1192,0.1178,0.1177,0.1177,0.1176,0,0.0598,0.0649,0.0703,0.0758,0.0816,0.089,0.0926,0.0988,0.0996,0.101,0.1118,0.1172,0.1216,0.1279,0.1278,0.1358,0.1289,0.125,0.1135,0.1257,0.1204,0.1202,0.1188,0.1186,0.1184,0.1182,0,0,0.0648,0.0755,0.0768,0.0798,0.0892,0.0941,0.1055,0.1127,0.1153,0.1243,0.1273,0.1435,0.1399,0.1433,0.1434,0.1439,0.1459,0.1363,0.1358,0.1273,0.1354,0.1298,0.1289,0.14,0.14,0.14,0.1305,0,0.0725,0.0847,0.089,0.1008,0.1064,0.11,0.1188,0.1258,0.1304,0.135,0.1401,0.1454,0.1474,0.1476,0.1497,0.1459,0.1456,0.1487,0.129,0.1285,0.1179,0.1287,0.1278,0.1191,0.1303,0.1302,0.1302,0,0.0809,0.0872,0.0984,0.1072,0.1099,0.1168,0.1248,0.1328,0.1403,0.1429,0.1476,0.148,0.1539,0.1515,0.1498,0.1495,0.1443,0.1413,0.1407,0.1303,0.1226,0.1091,0.1182,0.1086,0.1298,0.1298,0.1298,0,0.0799,0.0929,0.1003,0.1043,0.1156,0.1198,0.1252,0.1339,0.1385,0.1445,0.1457,0.1505,0.1502,0.147,0.1448,0.1443,0.1383,0.1358,0.1262,0.1256,0.1188,0.1175,0.1119,0.1329,0.1329,0.133,0.133,0,0.0847,0.0904,0.0992,0.1034,0.1099,0.118,0.1245,0.1303,0.1368,0.141,0.1463,0.1483,0.1482,0.1458,0.1428,0.1342,0.1359,0.1285,0.1235,0.1236,0.1229,0.1091,0.1035,0.1326,0.1327,0.1327,0.1328,0,0.0829,0.0896,0.0968,0.1068,0.1095,0.1132,0.1222,0.1267,0.1326,0.137,0.138,0.144,0.1417,0.1405,0.1346,0.1299,0.1174,0.1194,0.1196,0.1149,0.0967,0.092,0.0798,0.0776,0.1065,0.1063,0.1062,0,0.0832,0.087,0.096,0.0989,0.1031,0.1094,0.114,0.1228,0.1271,0.1347,0.1358,0.1363,0.1383,0.1289,0.1222,0.1137,0.1091,0.1039,0.1061,0.0966,0.0876,0.0864,0.0855,0.1023,0.1021,0.102,0.1019,0,0.0823,0.0846,0.0899,0.0951,0.0998,0.1059,0.1125,0.1151,0.1246,0.1281,0.1321,0.134,0.1285,0.1216,0.1107,0.1056,0.0968,0.1003,0.0909,0.0848,0.0827,0.0778,0.1066,0.1006,0.1007,0.1008,0.1009,0.101,0.0794,0.0811,0.087,0.0918,0.097,0.1024,0.1057,0.1123,0.1178,0.1242,0.1275,0.131,0.1237,0.1109,0.1005,0.0814,0.0843,0.075,0.0702,0.07,0.0684,0.094,0.082,0.0821,0.0821,0.0821,0.0821,0,0.0759,0.0794,0.0838,0.0899,0.0939,0.0982,0.1054,0.1081,0.1126,0.1203,0.1242,0.1252,0.1106,0.0985,0.0739,0.0555,0.0553,0.0462,0.0457,0.0466,0.0689,0.0693,0.0536,0.0536,0.0536,0.0536,0.0537,0.0537,0.0746,0.0774,0.0804,0.0858,0.0899,0.0942,0.0974,0.1015,0.1076,0.1144,0.1197,0.1271,0.1211,0.0714,0.0386,0.0316,0.0223,0.0167,0.0135,0.0286,0.0311,0.0334,0.0327,0.0096,0.0095,-0.0032,-0.0034,-0.0035]}],[{"header":{"parameterUnit":"m.s-1","parameterCategory":2,"la1":30.2991,"la2":30.254,"lo1":-89.0895,"lo2":-89.0444,"dy":0.0017,"dx":0.0017,"nx":28,"ny":28,"refTime":"2024-08-10T03:00:00:Z","depth":"2","parameterNumber":2,"parameterNumberName":"U-component_of_CURRENTS"},"data":[0,0,0,0,0,0,0,0,0,0,0,0,0,0,0,0,0,0,0,0,0,0,0,0,0,0,0,0,0,0,0,0,0,0,0,0,0,0,0,0,0,0,0,0,0,0,0,0,0,0,0,0,0,0,0,0,0,0,0.0958,0.0958,0,0.093,0.093,0.0929,0.0871,0.087,0.0869,0.0868,0.0877,0.0878,0.0879,0,0,0,0,0,0,0,0,0,0,0,0,0,0.0987,0.0987,0.0958,0.0958,0.0957,0.093,0.0929,0.0929,0.0871,0.087,0.0869,0.0867,0.0876,0.0878,0.0879,0,0,0,0,0,0,0,0,0,0,0,0,0,0.0967,0.0986,0.0958,0.0926,0.0923,0.093,0.0929,0.0929,0.0872,0.087,0.0868,0.0867,0.0876,0.0878,0.0879,0.0923,0,0,0.0885,0.0886,0,0,0,0,0,0,0,0,0.0968,0.0966,0.0931,0.0928,0.0925,0.0903,0.0943,0.0929,0.0872,0.089,0.0868,0.0866,0.0891,0.0891,0.0888,0.0923,0.0923,0.0885,0.0886,0.0887,0.0888,0,0,0,0,0,0,0,0.097,0.0967,0.0946,0.0931,0.0927,0.0922,0.0917,0.094,0.09,0.0888,0.0884,0.0883,0.0889,0.0886,0.0887,0.0923,0.0885,0.0887,0.0888,0.0889,0.1093,0.1097,0,0,0,0,0,0,0.0976,0.0968,0.0946,0.0945,0.0944,0.0923,0.0917,0.0911,0.0898,0.0895,0.0885,0.0881,0.0884,0.0885,0.0888,0.0975,0.0887,0.0889,0.089,0.1089,0.1094,0.1098,0,0,0,0,0,0,0.0977,0.0974,0.0948,0.0957,0.0953,0.0924,0.0917,0.0911,0.0921,0.0896,0.0892,0.0902,0.0882,0.0885,0.0935,0.0973,0.089,0.0891,0.1083,0.109,0.1096,0.1127,0,0,0,0,0,0,0.0977,0.0974,0.0991,0.0957,0.0953,0.0974,0.0919,0.0912,0.0922,0.0917,0.091,0.0907,0.0881,0.0932,0.0937,0.0974,0.0893,0.1078,0.1086,0.1094,0.112,0.1133,0.1145,0,0,0,0,0,0.0978,0.0999,0.0992,0.099,0.097,0.0976,0.0975,0.0947,0.0925,0.0947,0.0944,0.0908,0.0988,0.0937,0.0941,0.098,0.1074,0.1084,0.1093,0.1115,0.1131,0.1144,0,0,0,0,0,0,0.1026,0.0994,0.0986,0.0998,0.1001,0.0967,0.0986,0.0969,0.0982,0.0983,0.095,0.0951,0.1002,0.1015,0.096,0.1075,0.1032,0.1043,0.1047,0.1062,0.1074,0.1022,0.0894,0,0,0,0,0,0.1046,0.1045,0.1028,0.1042,0.1049,0.1026,0.1031,0.1016,0.1014,0.1016,0.1015,0.1032,0.1048,0.1071,0.1087,0.1156,0.1123,0.1196,0.1208,0.1218,0.1187,0.1185,0.1191,0.113,0.113,0.113,0,0,0.1062,0.1052,0.1049,0.1053,0.105,0.105,0.1025,0.1044,0.1045,0.1021,0.1047,0.1066,0.1076,0.1131,0.1161,0.1145,0.1229,0.123,0.1237,0.12,0.1196,0.12,0.1204,0.1137,0.1136,0.1135,0,0,0.1074,0.1096,0.1087,0.1097,0.1106,0.11,0.1113,0.111,0.1116,0.1158,0.1132,0.1171,0.1224,0.1218,0.1223,0.1328,0.1282,0.1373,0.1396,0.1396,0.1398,0.1399,0.1383,0.1383,0.1392,0.1392,0.1392,0,0.1092,0.108,0.1094,0.1093,0.11,0.1121,0.1119,0.1136,0.1153,0.1167,0.118,0.1236,0.1248,0.1271,0.1311,0.1343,0.1338,0.1322,0.1402,0.1403,0.1403,0.1386,0.1385,0.1395,0.1394,0.1394,0.1394,0,0.1075,0.1086,0.1095,0.1087,0.1111,0.1129,0.1147,0.1188,0.1216,0.122,0.1277,0.1304,0.1331,0.1368,0.1364,0.14,0.1394,0.1396,0.1338,0.1409,0.139,0.1388,0.1398,0.1397,0.1397,0.1396,0,0,0.1038,0.1069,0.1069,0.1077,0.1113,0.1124,0.1163,0.119,0.1204,0.1268,0.128,0.1341,0.1368,0.1378,0.1401,0.1413,0.1428,0.1422,0.142,0.1359,0.1425,0.1386,0.1379,0.1449,0.1449,0.1449,0.1412,0,0.1012,0.101,0.1034,0.1049,0.1057,0.1109,0.1135,0.1177,0.1225,0.126,0.1306,0.1335,0.1371,0.1398,0.1419,0.1417,0.1424,0.1437,0.1404,0.1402,0.132,0.1376,0.1208,0.1158,0.141,0.1409,0.1409,0,0.097,0.0979,0.0985,0.1032,0.104,0.1062,0.112,0.1148,0.1208,0.1247,0.1299,0.1331,0.1367,0.1388,0.1408,0.1423,0.1424,0.142,0.1419,0.1355,0.1359,0.1131,0.1144,0.1405,0.1406,0.1406,0.1406,0,0.0924,0.0946,0.0956,0.097,0.1022,0.105,0.1087,0.1149,0.1174,0.1238,0.126,0.1316,0.134,0.136,0.1387,0.1403,0.1384,0.1402,0.1357,0.1354,0.1185,0.1168,0.139,0.139,0.139,0.139,0.139,0,0.0881,0.0891,0.0942,0.0949,0.0974,0.1025,0.1062,0.1109,0.116,0.1181,0.1254,0.1268,0.1337,0.135,0.137,0.1358,0.1377,0.1344,0.134,0.12,0.1185,0.1377,0.1376,0.1388,0.1389,0.1389,0.1389,0,0.0833,0.0862,0.0883,0.0938,0.0958,0.0982,0.1045,0.1065,0.1121,0.1147,0.1165,0.123,0.1261,0.1305,0.1322,0.1322,0.1315,0.1299,0.1127,0.1104,0.1287,0.129,0.1244,0.1242,0.1241,0.1239,0.1238,0,0.0805,0.0811,0.087,0.0887,0.0919,0.0959,0.0984,0.1046,0.1061,0.1115,0.1113,0.1159,0.1184,0.1197,0.1192,0.1196,0.127,0.104,0.1037,0.127,0.1272,0.1276,0.128,0.0832,0.0828,0.0825,0.0822,0,0.076,0.0794,0.0814,0.0849,0.0881,0.0905,0.0944,0.0941,0.1002,0.1014,0.1029,0.105,0.107,0.1016,0.1026,0.0996,0.1034,0.0971,0.1238,0.0911,0.0883,0.0885,0.0902,0.0791,0.0794,0.0796,0.0798,0.0799,0.0737,0.0745,0.0783,0.0817,0.0842,0.0853,0.0854,0.0868,0.087,0.0865,0.0912,0.0895,0.0864,0.082,0.0814,0.0804,0.0866,0.08,0.081,0.0824,0.0798,0.0771,0.0651,0.0654,0.0656,0.0657,0.0659,0,0.0711,0.0735,0.0749,0.0782,0.0782,0.0829,0.0826,0.0793,0.0766,0.0755,0.0754,0.0627,0.0583,0.0622,0.056,0.0555,0.0543,0.0533,0.0505,0.053,0.0555,0.0518,0.0296,0.0296,0.0297,0.0297,0,0,0.0701,0.0707,0.0717,0.0719,0.075,0.0745,0.074,0.0676,0.064,0.0547,0.0515,0.0507,0.0536,0.0415,0.0373,0.0358,0.0454,0.0324,0.0585,0.0571,0.0597,0.0644,0.0607,0,0,0,0,0]},{"header":{"parameterUnit":"m.s-1","parameterCategory":2,"la1":30.2991,"la2":30.254,"lo1":-89.0895,"lo2":-89.0444,"dy":0.0017,"dx":0.0017,"nx":28,"ny":28,"refTime":"2024-08-10T03:00:00:Z","depth":"2","parameterNumber":3,"parameterNumberName":"V-component_of_CURRENTS"},"data":[0,0,0,0,0,0,0,0,0,0,0,0,0,0,0,0,0,0,0,0,0,0,0,0,0,0,0,0,0,0,0,0,0,0,0,0,0,0,0,0,0,0,0,0,0,0,0,0,0,0,0,0,0,0,0,0,0,0,-0.0407,-0.0408,0,-0.0446,-0.0446,-0.0447,-0.0453,-0.0453,-0.0453,-0.0453,-0.0476,-0.0477,-0.0477,0,0,0,0,0,0,0,0,0,0,0,0,0,-0.0303,-0.0305,-0.0407,-0.0408,-0.0409,-0.0446,-0.0446,-0.0447,-0.0453,-0.0453,-0.0453,-0.0453,-0.0476,-0.0477,-0.0477,0,0,0,0,0,0,0,0,0,0,0,0,0,-0.0343,-0.0305,-0.0407,-0.0418,-0.042,-0.0446,-0.0446,-0.0447,-0.0453,-0.0453,-0.0453,-0.0453,-0.0476,-0.0477,-0.0478,-0.0487,0,0,-0.0481,-0.0481,0,0,0,0,0,0,0,0,-0.0341,-0.0347,-0.0416,-0.0418,-0.042,-0.0447,-0.0418,-0.046,-0.0453,-0.0438,-0.0453,-0.0453,-0.0467,-0.0469,-0.0473,-0.0488,-0.0489,-0.0481,-0.0482,-0.0482,-0.0482,0,0,0,0,0,0,0,-0.0338,-0.0345,-0.042,-0.0417,-0.0419,-0.041,-0.0415,-0.0426,-0.045,-0.0439,-0.044,-0.0449,-0.0467,-0.0472,-0.0473,-0.0489,-0.0481,-0.0482,-0.0482,-0.0483,-0.0503,-0.0503,0,0,0,0,0,0,-0.0341,-0.0343,-0.0419,-0.0421,-0.0382,-0.0412,-0.0418,-0.0436,-0.045,-0.0453,-0.0449,-0.0449,-0.047,-0.0472,-0.0474,-0.0512,-0.0482,-0.0483,-0.0484,-0.0503,-0.0503,-0.0503,0,0,0,0,0,0,-0.0339,-0.0348,-0.0417,-0.0384,-0.0393,-0.0414,-0.0434,-0.0437,-0.0442,-0.0459,-0.0461,-0.0452,-0.047,-0.0473,-0.0477,-0.0512,-0.0483,-0.0484,-0.0503,-0.0503,-0.0503,-0.0571,0,0,0,0,0,0,-0.0336,-0.0347,-0.0358,-0.0385,-0.0395,-0.0435,-0.0435,-0.0438,-0.0449,-0.045,-0.0462,-0.0464,-0.047,-0.0475,-0.0478,-0.0513,-0.0485,-0.0504,-0.0503,-0.0503,-0.0569,-0.0573,-0.0576,0,0,0,0,0,-0.0332,-0.0353,-0.0358,-0.0367,-0.0411,-0.0436,-0.0439,-0.0452,-0.045,-0.0455,-0.0455,-0.0464,-0.0476,-0.0476,-0.0479,-0.0515,-0.0504,-0.0503,-0.0503,-0.0567,-0.0572,-0.0576,0,0,0,0,0,0,-0.0322,-0.0357,-0.0363,-0.0396,-0.0414,-0.0438,-0.0447,-0.0452,-0.0457,-0.0455,-0.0462,-0.0464,-0.0484,-0.0477,-0.0476,-0.0515,-0.0492,-0.0492,-0.0539,-0.0544,-0.0548,-0.051,-0.0486,0,0,0,0,0,-0.0323,-0.0345,-0.0373,-0.0399,-0.0408,-0.0425,-0.0435,-0.0443,-0.0454,-0.0456,-0.0462,-0.0467,-0.0485,-0.0495,-0.05,-0.0522,-0.05,-0.0543,-0.0547,-0.0551,-0.0519,-0.0539,-0.0542,-0.0503,-0.0503,-0.0503,0,0,-0.0329,-0.035,-0.0364,-0.0397,-0.0411,-0.0428,-0.043,-0.0449,-0.046,-0.0458,-0.0468,-0.048,-0.049,-0.0517,-0.0525,-0.0518,-0.0548,-0.055,-0.0554,-0.0519,-0.0539,-0.0543,-0.0547,-0.0502,-0.0502,-0.0502,0,0,-0.0348,-0.0367,-0.0386,-0.0399,-0.0421,-0.0432,-0.0437,-0.0456,-0.046,-0.0473,-0.048,-0.0501,-0.0518,-0.054,-0.0553,-0.0576,-0.0566,-0.0584,-0.0585,-0.0607,-0.0611,-0.0614,-0.0588,-0.0589,-0.0592,-0.0592,-0.0592,0,-0.0352,-0.0376,-0.0395,-0.0412,-0.0415,-0.0433,-0.0441,-0.046,-0.0475,-0.047,-0.0479,-0.0503,-0.0531,-0.0563,-0.0578,-0.059,-0.0574,-0.0578,-0.0615,-0.0617,-0.0619,-0.0592,-0.0592,-0.0595,-0.0595,-0.0594,-0.0594,0,-0.0379,-0.0393,-0.0405,-0.0428,-0.0436,-0.0447,-0.0467,-0.0472,-0.0479,-0.0488,-0.0505,-0.0538,-0.0541,-0.0581,-0.0593,-0.0624,-0.0598,-0.0621,-0.0609,-0.0628,-0.0597,-0.0596,-0.06,-0.0599,-0.0598,-0.0597,0,0,-0.0397,-0.0417,-0.042,-0.0409,-0.0435,-0.0437,-0.046,-0.0467,-0.0457,-0.0494,-0.0481,-0.0552,-0.0548,-0.0559,-0.059,-0.0624,-0.0652,-0.0626,-0.0626,-0.0609,-0.0659,-0.0606,-0.0598,-0.0689,-0.0689,-0.0689,-0.0632,0,-0.0404,-0.0416,-0.043,-0.0428,-0.0423,-0.0433,-0.0439,-0.0449,-0.0457,-0.045,-0.0498,-0.0498,-0.0549,-0.0548,-0.0597,-0.0624,-0.0649,-0.0662,-0.0632,-0.063,-0.059,-0.0595,-0.059,-0.0536,-0.063,-0.063,-0.063,0,-0.0414,-0.0414,-0.0408,-0.0386,-0.0385,-0.0385,-0.0362,-0.037,-0.0382,-0.0382,-0.0402,-0.0421,-0.0461,-0.0507,-0.0564,-0.0566,-0.0603,-0.0638,-0.0638,-0.0553,-0.0573,-0.0531,-0.0528,-0.0626,-0.0626,-0.0627,-0.0627,0,-0.0378,-0.0388,-0.0368,-0.0367,-0.0362,-0.0345,-0.0337,-0.0339,-0.0321,-0.0322,-0.0299,-0.0353,-0.0352,-0.0425,-0.0492,-0.0525,-0.054,-0.0599,-0.0581,-0.0576,-0.0542,-0.0533,-0.0635,-0.0635,-0.0635,-0.0635,-0.0635,0,-0.0358,-0.0339,-0.0342,-0.0327,-0.0283,-0.0293,-0.0245,-0.0244,-0.023,-0.0195,-0.0245,-0.0223,-0.0334,-0.0362,-0.0447,-0.0479,-0.0501,-0.0552,-0.0559,-0.0562,-0.0557,-0.0611,-0.0609,-0.0633,-0.0633,-0.0634,-0.0634,0,-0.0304,-0.0317,-0.0285,-0.0272,-0.026,-0.022,-0.0178,-0.0147,-0.0135,-0.0089,-0.008,-0.0109,-0.0136,-0.0229,-0.0322,-0.039,-0.0451,-0.0461,-0.0426,-0.043,-0.0481,-0.0483,-0.0431,-0.0428,-0.0426,-0.0425,-0.0423,0,-0.027,-0.0251,-0.023,-0.0205,-0.019,-0.0141,-0.0107,-0.0092,-0.0061,-0.0019,0.0009,0.0008,0.0016,-0.0065,-0.0191,-0.0283,-0.0359,-0.0338,-0.0416,-0.0448,-0.0461,-0.0466,-0.047,-0.0397,-0.0396,-0.0394,-0.0393,0,-0.0193,-0.0192,-0.0168,-0.0127,-0.0086,-0.0041,0.0006,0.0039,0.006,0.011,0.0167,0.0185,0.0125,0.003,-0.0083,-0.0161,-0.0325,-0.0313,-0.0364,-0.0445,-0.0411,-0.0425,-0.0432,-0.0382,-0.0384,-0.0384,-0.0385,-0.0385,-0.0128,-0.0098,-0.008,-0.0034,0.0005,0.0051,0.0093,0.0139,0.0207,0.028,0.0284,0.0302,0.0151,0.0012,-0.0075,-0.0175,-0.0207,-0.0293,-0.03,-0.0307,-0.0309,-0.0274,-0.0216,-0.0217,-0.0217,-0.0217,-0.0217,0,-0.0045,-0.0029,0.0012,0.0054,0.0099,0.0104,0.0162,0.0202,0.0287,0.0343,0.0411,0.0263,0.0186,0.0039,-0.0092,-0.0173,-0.0208,-0.0205,-0.0266,-0.0276,-0.0285,-0.0289,-0.0189,-0.0189,-0.0189,-0.0189,0,0,-0.0,0.0044,0.0052,0.013,0.0158,0.0212,0.0243,0.0309,0.0342,0.0395,0.0387,0.0377,0.0168,0.0049,-0.0063,-0.0116,-0.0168,-0.0116,-0.0133,-0.02,-0.0207,-0.0331,-0.0347,0,0,0,0,0]}],[{"header":{"parameterUnit":"m.s-1","parameterCategory":2,"la1":30.2991,"la2":30.254,"lo1":-89.0895,"lo2":-89.0444,"dy":0.0017,"dx":0.0017,"nx":28,"ny":28,"refTime":"2024-08-10T03:00:00:Z","depth":"4","parameterNumber":2,"parameterNumberName":"U-component_of_CURRENTS"},"data":[0,0,0,0,0,0,0,0,0,0,0,0,0,0,0,0,0,0,0,0,0,0,0,0,0,0,0,0,0,0,0,0,0,0,0,0,0,0,0,0,0,0,0,0,0,0,0,0,0,0,0,0,0,0,0,0,0,0,-0.0197,-0.0196,0,-0.0093,-0.0092,-0.009,0.0023,0.0025,0.0026,0.0028,0.0124,0.0125,0.0127,0,0,0,0,0,0,0,0,0,0,0,0,0,-0.0268,-0.0267,-0.0197,-0.0196,-0.0195,-0.0093,-0.0092,-0.009,0.0023,0.0025,0.0026,0.0028,0.0124,0.0125,0.0127,0,0,0,0,0,0,0,0,0,0,0,0,0,-0.0207,-0.0267,-0.0197,-0.0127,-0.012,-0.0094,-0.0092,-0.009,0.0022,0.0025,0.0027,0.0029,0.0123,0.0125,0.0127,0.0091,0,0,0.0132,0.0133,0,0,0,0,0,0,0,0,-0.021,-0.0204,-0.0138,-0.0132,-0.0124,-0.0046,-0.0081,-0.003,0.0022,-0.0031,0.0028,0.003,0.0064,0.0071,0.0087,0.0096,0.01,0.0132,0.0133,0.0134,0.0134,0,0,0,0,0,0,0,-0.0215,-0.0208,-0.0155,-0.0137,-0.0128,-0.009,-0.0079,-0.007,0.0003,-0.0026,-0.0018,-0.0008,0.0069,0.0085,0.009,0.0101,0.0132,0.0134,0.0135,0.0135,0.0118,0.0116,0,0,0,0,0,0,-0.0234,-0.0212,-0.0158,-0.0152,-0.0163,-0.0091,-0.0078,-0.0073,0.0004,0.0017,-0.001,-0.0003,0.0081,0.0088,0.0094,0.0096,0.0134,0.0136,0.0137,0.0119,0.0117,0.0116,0,0,0,0,0,0,-0.0236,-0.023,-0.0162,-0.018,-0.0169,-0.0093,-0.0087,-0.0072,-0.0016,0.0015,0.0029,0.0034,0.0083,0.0091,0.0118,0.0099,0.0136,0.0138,0.0121,0.0119,0.0117,0.0075,0,0,0,0,0,0,-0.0239,-0.0232,-0.0232,-0.0182,-0.0168,-0.0143,-0.0089,-0.0072,-0.0017,-0.0006,0.0057,0.0067,0.0085,0.0115,0.012,0.0102,0.0139,0.0123,0.012,0.0117,0.0078,0.0072,0.0066,0,0,0,0,0,-0.0242,-0.0256,-0.0233,-0.0226,-0.0172,-0.0143,-0.0133,-0.007,-0.0017,-0.0007,0.004,0.0067,0.01,0.0116,0.0122,0.0104,0.0124,0.0121,0.0118,0.0081,0.0073,0.0066,0,0,0,0,0,0,-0.0281,-0.0244,-0.0218,-0.0218,-0.0181,-0.0124,-0.0115,-0.0057,-0.0009,0.001,0.0058,0.0069,0.0077,0.0094,0.011,0.0086,0.0111,0.0109,0.0082,0.0074,0.0068,0.0079,0.0141,0,0,0,0,0,-0.0295,-0.0299,-0.0249,-0.025,-0.0235,-0.0167,-0.0142,-0.0093,-0.0047,-0.0019,0.0028,0.0058,0.0057,0.0075,0.0078,0.0077,0.0101,0.0063,0.0057,0.0052,0.0061,0.0073,0.007,0.0105,0.0105,0.0105,0,0,-0.0312,-0.0293,-0.0293,-0.0259,-0.0227,-0.0209,-0.0145,-0.0109,-0.0086,-0.0023,0.002,0.004,0.0051,0.0042,0.0047,0.0064,0.0051,0.0047,0.0043,0.0056,0.0069,0.0066,0.0064,0.0102,0.0103,0.0103,0,0,-0.0336,-0.033,-0.0326,-0.0308,-0.0261,-0.0232,-0.0214,-0.0142,-0.0106,-0.0074,-0.0033,-0.0018,0.0007,0.0006,0.0005,-0.0034,0.0014,-0.0032,-0.0044,-0.0033,-0.0035,-0.0036,-0.0015,-0.0014,-0.0029,-0.0029,-0.0029,0,-0.0345,-0.0338,-0.0321,-0.0311,-0.0295,-0.0239,-0.0218,-0.0198,-0.0119,-0.009,-0.007,-0.0028,-0.0022,-0.003,-0.0048,-0.0048,-0.0017,-0.0013,-0.0039,-0.004,-0.004,-0.0018,-0.0016,-0.0031,-0.0031,-0.0031,-0.0031,0,-0.0348,-0.0351,-0.0355,-0.033,-0.0317,-0.03,-0.0267,-0.0235,-0.0185,-0.0145,-0.012,-0.0111,-0.0072,-0.0093,-0.0081,-0.0087,-0.0056,-0.0051,-0.0013,-0.0046,-0.0021,-0.0019,-0.0035,-0.0034,-0.0033,-0.0033,0,0,-0.0344,-0.0349,-0.0351,-0.034,-0.0319,-0.0301,-0.0296,-0.0256,-0.0216,-0.0187,-0.0139,-0.0168,-0.012,-0.0118,-0.0103,-0.0106,-0.0102,-0.0072,-0.007,-0.0039,-0.0052,-0.0088,-0.0088,-0.0083,-0.0083,-0.0083,-0.0034,0,-0.0337,-0.0334,-0.0335,-0.0332,-0.0324,-0.03,-0.0293,-0.0258,-0.0223,-0.0175,-0.0174,-0.0136,-0.0145,-0.011,-0.012,-0.0097,-0.0095,-0.0114,-0.0035,-0.0033,-0.0051,-0.0087,-0.0082,-0.0032,-0.0031,-0.0031,-0.003,0,-0.0323,-0.0326,-0.0325,-0.0316,-0.0306,-0.0296,-0.0253,-0.0233,-0.019,-0.0156,-0.0125,-0.0096,-0.0091,-0.0096,-0.0081,-0.0078,-0.0065,-0.0064,-0.0061,-0.0074,-0.0064,0.0007,-0.0025,-0.0026,-0.0026,-0.0026,-0.0027,0,-0.0316,-0.0315,-0.0316,-0.0318,-0.0304,-0.0282,-0.0253,-0.0211,-0.0178,-0.0124,-0.0084,-0.0068,-0.0038,-0.0036,-0.0039,-0.0035,-0.0026,-0.0019,-0.0044,-0.0045,-0.0005,-0.0003,-0.0013,-0.0013,-0.0013,-0.0013,-0.0014,0,-0.0304,-0.0309,-0.0309,-0.0312,-0.0283,-0.0265,-0.0215,-0.0181,-0.0127,-0.0091,-0.0057,-0.0046,-0.0017,-0.0011,-0.002,-0.0031,-0.0008,-0.0049,-0.0041,-0.0026,-0.0028,-0.0003,-0.0002,-0.0012,-0.0012,-0.0012,-0.0013,0,-0.0303,-0.0311,-0.032,-0.0304,-0.0285,-0.0261,-0.019,-0.0151,-0.0097,-0.0049,-0.0025,-0.0002,-0.0013,-0.0006,-0.0004,-0.0,-0.0015,-0.0025,-0.0005,0.0004,-0.0037,-0.004,-0.0027,-0.0028,-0.0029,-0.0029,-0.003,0,-0.03,-0.0306,-0.0315,-0.0304,-0.0293,-0.0245,-0.0203,-0.014,-0.0105,-0.0052,-0.0039,-0.0022,-0.0021,-0.0037,-0.0051,-0.0054,-0.0065,-0.0022,-0.0041,-0.0048,-0.0041,-0.0042,-0.0043,-0.0031,-0.0031,-0.0032,-0.0032,0,-0.0307,-0.0326,-0.034,-0.0308,-0.0276,-0.0233,-0.0171,-0.0141,-0.0078,-0.0042,-0.0035,-0.0028,-0.005,-0.0074,-0.0064,-0.0082,-0.0021,-0.003,-0.0028,-0.0046,-0.0053,-0.0046,-0.0046,-0.0035,-0.0034,-0.0034,-0.0034,0,-0.0326,-0.0337,-0.0351,-0.0311,-0.0275,-0.0221,-0.0188,-0.0141,-0.0099,-0.0036,-0.0063,-0.0072,-0.0072,-0.0094,-0.0115,-0.0108,-0.0107,-0.0059,-0.0055,-0.0052,-0.009,-0.0104,-0.0097,0,0,0,0,0,-0.0344,-0.0351,-0.0329,-0.0296,-0.0253,-0.0221,-0.0167,-0.0138,-0.0091,-0.008,-0.0054,-0.0088,-0.0099,-0.0132,-0.0135,-0.0149,-0.0115,-0.0149,-0.006,-0.0051,-0.0047,-0.0093,0,0,0,0,0,0,-0.0361,-0.0376,-0.0349,-0.0286,-0.0241,-0.0186,-0.0154,-0.0123,-0.0116,-0.0082,-0.0114,-0.0073,-0.0122,-0.011,-0.0137,-0.0139,-0.0073,-0.0157,-0.0155,-0.0053,-0.005,-0.0047,-0.0092,0,0,0,0,0]},{"header":{"parameterUnit":"m.s-1","parameterCategory":2,"la1":30.2991,"la2":30.254,"lo1":-89.0895,"lo2":-89.0444,"dy":0.0017,"dx":0.0017,"nx":28,"ny":28,"refTime":"2024-08-10T03:00:00:Z","depth":"4","parameterNumber":3,"parameterNumberName":"V-component_of_CURRENTS"},"data":[0,0,0,0,0,0,0,0,0,0,0,0,0,0,0,0,0,0,0,0,0,0,0,0,0,0,0,0,0,0,0,0,0,0,0,0,0,0,0,0,0,0,0,0,0,0,0,0,0,0,0,0,0,0,0,0,0,0,0.0275,0.0275,0,0.0245,0.0245,0.0245,0.0276,0.0278,0.0279,0.028,0.0182,0.0178,0.0174,0,0,0,0,0,0,0,0,0,0,0,0,0,0.03,0.0299,0.0275,0.0274,0.0274,0.0245,0.0245,0.0244,0.0276,0.0278,0.0279,0.0281,0.0183,0.0178,0.0174,0,0,0,0,0,0,0,0,0,0,0,0,0,0.0281,0.0299,0.0275,0.0287,0.0288,0.0246,0.0245,0.0244,0.0276,0.0278,0.028,0.0282,0.0184,0.0179,0.0173,0.0099,0,0,0.0156,0.0153,0,0,0,0,0,0,0,0,0.0282,0.028,0.0286,0.0286,0.0287,0.0267,0.0218,0.0193,0.0275,0.028,0.028,0.0282,0.0203,0.0196,0.0186,0.0094,0.009,0.0155,0.0152,0.0149,0.0147,0,0,0,0,0,0,0,0.0283,0.0281,0.0262,0.0285,0.0286,0.0274,0.0274,0.0213,0.0229,0.0279,0.0282,0.0279,0.0203,0.0191,0.0183,0.0089,0.0155,0.015,0.0147,0.0144,-0.004,-0.0041,0,0,0,0,0,0,0.0289,0.0282,0.0263,0.0262,0.029,0.0272,0.0272,0.0271,0.0231,0.0228,0.0278,0.0281,0.02,0.019,0.018,0.0133,0.0149,0.0144,0.014,-0.0038,-0.004,-0.0042,0,0,0,0,0,0,0.029,0.0288,0.0265,0.0272,0.0268,0.027,0.0268,0.0269,0.0257,0.0231,0.0226,0.0264,0.0201,0.0188,0.0125,0.0128,0.0141,0.0136,-0.0037,-0.0039,-0.0041,0.0012,0,0,0,0,0,0,0.0291,0.0288,0.0291,0.0272,0.0268,0.0245,0.0267,0.0267,0.0253,0.0256,0.0217,0.0211,0.0202,0.0133,0.0119,0.0121,0.0131,-0.0035,-0.0038,-0.004,0.0012,0.0011,0.0011,0,0,0,0,0,0.0291,0.0296,0.0292,0.0289,0.0272,0.0245,0.0241,0.0249,0.025,0.0243,0.0212,0.0212,0.0107,0.0127,0.011,0.0111,-0.0034,-0.0037,-0.004,0.0012,0.0011,0.0011,0,0,0,0,0,0,0.0311,0.0299,0.0294,0.0295,0.0271,0.0251,0.0253,0.0235,0.0204,0.0204,0.0179,0.0169,0.012,0.0089,0.0112,0.0046,0.0041,0.0034,0.0086,0.0085,0.0085,0.01,0.0127,0,0,0,0,0,0.0313,0.032,0.0289,0.0293,0.028,0.0256,0.0246,0.0235,0.0205,0.0195,0.0157,0.0119,0.0089,0.0068,0.0026,-0.0027,-0.004,-0.0036,-0.0036,-0.0036,-0.0037,-0.0056,-0.0056,-0.0052,-0.0052,-0.0052,0,0,0.0328,0.0319,0.0325,0.0298,0.0285,0.0275,0.0256,0.0233,0.0228,0.0182,0.0151,0.0105,0.0071,0.0033,0.0009,0.0012,-0.0045,-0.004,-0.0039,-0.0041,-0.0059,-0.0059,-0.0058,-0.0055,-0.0054,-0.0054,0,0,0.0348,0.0343,0.0346,0.0331,0.0299,0.0282,0.027,0.0222,0.0209,0.0152,0.0136,0.009,0.0017,0.0013,0.0002,-0.0038,-0.005,-0.006,-0.0041,-0.0058,-0.0058,-0.0057,-0.0066,-0.0067,-0.0053,-0.0053,-0.0053,0,0.0363,0.0357,0.0341,0.0336,0.0326,0.0287,0.0273,0.0259,0.0193,0.0159,0.015,0.0049,0.0022,0.0002,-0.0,-0.0031,-0.0051,-0.0026,-0.0054,-0.0054,-0.0054,-0.0064,-0.0066,-0.0051,-0.0051,-0.0051,-0.0051,0,0.0369,0.0374,0.0375,0.0365,0.0352,0.033,0.0303,0.0264,0.0224,0.0191,0.0124,0.008,0.002,0.0014,-0.0002,-0.0023,-0.0039,-0.0051,-0.004,-0.0051,-0.0061,-0.0064,-0.0048,-0.0048,-0.0049,-0.0049,0,0,0.0365,0.0376,0.0377,0.0372,0.0354,0.0333,0.0325,0.0276,0.0245,0.0191,0.0144,0.0107,0.0053,0.0035,0.0006,0.0001,-0.0009,-0.0028,-0.003,-0.0014,-0.0051,-0.0041,-0.0043,-0.0029,-0.0029,-0.003,-0.0052,0,0.0362,0.0366,0.0369,0.037,0.0359,0.0334,0.0323,0.0282,0.0234,0.0178,0.0143,0.0089,0.0078,0.0033,0.0028,-0.0014,-0.0017,-0.0002,-0.0065,-0.0066,-0.0036,-0.0046,-0.0031,-0.0054,-0.0055,-0.0055,-0.0056,0,0.0344,0.0349,0.0354,0.0344,0.0334,0.0332,0.0274,0.0254,0.0197,0.0153,0.0106,0.0065,0.0041,0.003,-0.0008,-0.0005,-0.0029,-0.0042,-0.0044,-0.0055,-0.0062,-0.0048,-0.006,-0.006,-0.006,-0.0059,-0.0059,0,0.0312,0.0326,0.0329,0.0332,0.0326,0.0305,0.0278,0.0228,0.0194,0.0131,0.0094,0.0054,0.002,-0.0004,-0.0032,-0.0034,-0.0068,-0.0073,-0.0078,-0.0077,-0.0098,-0.0098,-0.0095,-0.0095,-0.0095,-0.0095,-0.0095,0,0.0284,0.0284,0.0316,0.0314,0.0287,0.0282,0.0229,0.0193,0.0147,0.0103,0.0074,0.0033,0.0006,-0.0019,-0.0039,-0.0063,-0.0074,-0.0076,-0.0084,-0.0077,-0.0075,-0.0099,-0.0099,-0.0096,-0.0096,-0.0095,-0.0095,0,0.0243,0.0274,0.0278,0.0283,0.0276,0.025,0.0207,0.0165,0.0131,0.0078,0.0061,0.0013,-0.002,-0.0026,-0.0068,-0.0072,-0.0094,-0.0099,-0.0085,-0.0091,-0.009,-0.0087,-0.011,-0.011,-0.011,-0.011,-0.011,0,0.022,0.0225,0.0253,0.0249,0.025,0.0216,0.0181,0.0148,0.0115,0.0059,0.0033,-0.0003,-0.0033,-0.008,-0.0083,-0.0096,-0.0098,-0.0106,-0.01,-0.0087,-0.0092,-0.009,-0.0088,-0.011,-0.011,-0.011,-0.011,0,0.0173,0.0201,0.0207,0.0202,0.0189,0.0163,0.0118,0.0091,0.0051,0.0054,-0.0017,-0.0046,-0.0075,-0.0099,-0.0097,-0.011,-0.0099,-0.0105,-0.0106,-0.01,-0.0087,-0.0091,-0.0089,-0.011,-0.011,-0.011,-0.011,0,0.0139,0.0137,0.0157,0.0145,0.0135,0.0095,0.0075,0.0031,0.0002,-0.0032,-0.0058,-0.0089,-0.0095,-0.0108,-0.0115,-0.0111,-0.0113,-0.0122,-0.0122,-0.0122,-0.011,-0.0094,-0.0127,0,0,0,0,0,0.0105,0.0095,0.0083,0.0071,0.0062,0.0058,0.0029,0.0017,0.0003,-0.0049,-0.0054,-0.0084,-0.0109,-0.0127,-0.0123,-0.0105,-0.0103,-0.01,-0.0111,-0.0108,-0.0108,-0.0091,0,0,0,0,0,0,0.0078,0.0074,0.0072,0.0021,-0.0001,-0.0025,-0.004,-0.005,-0.008,-0.0085,-0.0101,-0.008,-0.0101,-0.0106,-0.0122,-0.0119,-0.0127,-0.0095,-0.0096,-0.0108,-0.0108,-0.0108,-0.0091,0,0,0,0,0]}]]